EA5AER-5 Weather Reports


time (UTC)temp
C
wind
direction
speed
KPH
gust
KPH
rain 1hr
cm
rain 24hr
cm
rain mn
cm
humidity
%
barometer
mb
20260510190428 22 338 8.0 16.1 0.00 0.00 0.00 59 1009.8
20260510184323 22 171 22.5 57.9 0.00 0.00 0.00 52 1007.7
20260510182136 22 171 22.5 57.9 0.00 0.00 0.00 52 1007.7
20260510180036 22 221 22.5 51.5 0.00 0.00 0.00 50 1007.7
20260510174018 22 194 22.5 41.8 0.00 0.00 0.00 52 1007.9
20260510172103 22 184 17.7 32.2 0.00 0.00 0.00 54 1007.7
20260510170108 23 198 14.5 33.8 0.00 0.00 0.00 54 1008.0
20260510164023 23 198 14.5 33.8 0.00 0.00 0.00 54 1008.0
20260510162033 23 190 16.1 32.2 0.00 0.00 0.00 52 1008.1
20260510160043 23 209 19.3 38.6 0.00 0.00 0.00 52 1008.4
20260510154058 23 155 22.5 40.2 0.00 0.00 0.00 54 1008.2
20260510152029 23 192 20.9 41.8 0.00 0.00 0.00 53 1008.3
20260510145850 23 146 11.3 27.4 0.00 0.00 0.00 56 1008.7
20260510143920 23 124 11.3 22.5 0.00 0.00 0.00 53 1009.1
20260510141758 23 124 11.3 22.5 0.00 0.00 0.00 53 1009.1
20260510135733 23 120 16.1 33.8 0.00 0.00 0.00 53 1009.6
20260510133744 22 154 17.7 37.0 0.00 0.00 0.00 54 1009.9
20260510131852 23 112 19.3 29.0 0.00 0.08 0.00 49 1009.9
20260510130003 23 140 20.9 38.6 0.00 0.13 0.00 48 1010.2
20260510124251 23 140 20.9 38.6 0.00 0.13 0.00 48 1010.2
20260510122331 23 140 20.9 38.6 0.00 0.13 0.00 48 1010.2
20260510122222 23 140 20.9 38.6 0.00 0.13 0.00 48 1010.2
20260510120308 20 71 11.3 19.3 0.00 1.30 0.00 68 1012.2
20260510114310 20 71 11.3 19.3 0.00 1.30 0.00 68 1012.2
20260510112458 20 71 11.3 19.3 0.00 1.30 0.00 68 1012.2
20260510110439 20 71 11.3 19.3 0.00 1.30 0.00 68 1012.2
20260510104613 20 71 11.3 19.3 0.00 1.30 0.00 68 1012.2
20260510102513 20 71 11.3 19.3 0.00 1.30 0.00 68 1012.2
20260510100449 20 72 6.4 9.7 0.00 1.32 0.00 64 1012.3
20260510094329 20 72 6.4 9.7 0.00 1.32 0.00 64 1012.3
20260510092238 20 44 3.2 4.8 0.00 2.39 0.00 68 1012.4
20260510090204 20 44 3.2 4.8 0.00 2.39 0.00 68 1012.4
20260510084224 20 44 3.2 4.8 0.00 2.39 0.00 68 1012.4
20260510082241 20 44 3.2 4.8 0.00 2.39 0.00 68 1012.4
20260510080207 20 44 3.2 4.8 0.00 2.39 0.00 68 1012.4
20260510074146 20 120 1.6 3.2 0.00 2.44 0.00 69 1012.7
20260510072131 20 120 1.6 3.2 0.00 2.44 0.00 69 1012.7
20260510070013 17 140 1.6 4.8 0.00 2.49 0.00 80 1012.1
20260510064010 17 140 1.6 4.8 0.00 2.49 0.00 80 1012.1
20260510062124 16 177 0.0 3.2 0.00 2.87 0.00 79 1011.9
20260510060104 16 177 0.0 3.2 0.00 2.87 0.00 79 1011.9
20260510054213 15 24 1.6 4.8 0.00 2.87 0.00 82 1011.4
20260510052243 15 24 1.6 4.8 0.00 2.87 0.00 82 1011.4
20260510050137 15 24 1.6 4.8 0.00 2.87 0.00 82 1011.4
20260510044101 15 24 1.6 4.8 0.00 2.87 0.00 82 1011.4
20260510042044 15 251 3.2 4.8 0.00 2.87 0.00 83 1011.3
20260510040059 15 211 0.0 0.0 0.00 2.87 0.00 84 1011.3
20260510034002 15 211 0.0 0.0 0.00 2.87 0.00 84 1011.3
20260510031904 15 286 0.0 0.0 0.00 2.87 0.00 83 1011.4
20260510025848 15 286 0.0 0.0 0.00 2.87 0.00 83 1011.4
20260510023849 15 219 0.0 0.0 0.00 2.87 0.00 85 1011.4
20260510021744 15 219 0.0 0.0 0.00 2.87 0.00 85 1011.4
20260510015742 15 219 0.0 0.0 0.00 2.87 0.00 85 1011.4
20260510013729 15 219 0.0 0.0 0.00 2.87 0.00 86 1011.4
20260510011715 15 219 0.0 0.0 0.00 2.87 0.00 85 1011.5
20260510005549 15 219 0.0 0.0 0.00 2.87 0.00 84 1011.6
20260510003633 16 219 0.0 0.0 0.00 2.87 0.00 84 1012.0
20260510001534 15 184 3.2 4.8 0.00 2.87 0.00 85 1012.3
20260509235437 15 236 1.6 4.8 0.00 2.87 0.00 85 1012.2
20260509233419 16 240 1.6 3.2 0.00 2.87 0.00 84 1012.2
20260509231444 16 240 1.6 3.2 0.00 2.87 0.00 84 1012.2
20260509225359 16 240 1.6 3.2 0.00 2.87 0.00 84 1012.2
20260509223523 16 246 3.2 8.0 0.00 2.87 0.00 84 1012.3
20260509221529 16 246 3.2 8.0 0.00 2.87 0.00 84 1012.3
20260509215434 16 255 1.6 4.8 0.00 2.87 2.87 82 1012.4
20260509213309 17 250 8.0 11.3 0.00 2.87 2.87 79 1012.4
20260509211120 17 6 1.6 4.8 0.00 2.87 2.87 83 1011.9
20260509205157 17 6 1.6 4.8 0.00 2.87 2.87 83 1011.9
20260509203116 17 123 1.6 3.2 0.00 2.87 2.87 80 1010.8
20260509201148 17 123 1.6 3.2 0.00 2.87 2.87 80 1010.8
20260509195120 17 123 1.6 3.2 0.00 2.87 2.87 80 1010.8
20260509193059 17 123 1.6 3.2 0.00 2.87 2.87 80 1010.8
20260509191113 17 123 1.6 3.2 0.00 2.87 2.87 80 1010.8